AirNav   ATP
 
 2058 users online  

28U Owyhee Reservoir State Airport
Owyhee, Oregon, USA

GOING TO OWYHEE?


FAA INFORMATION EFFECTIVE 26 APRIL 2018

Location

FAA Identifier: 28U
Lat/Long: 43-25-29.4000N / 117-20-44.4000W
43-25.490000N / 117-20.740000W
43.4248333 / -117.3456667
(estimated)
Elevation: 2680 ft. / 817 m (estimated)
Variation: 17E (1985)
From city: 25 miles SW of OWYHEE, OR
Time zone: UTC -7 (UTC -8 during Standard Time)
Zip code: 97901

Airport Operations

Airport use: Open to the public
Activation date: 10/1958
Control tower: no
ARTCC: SALT LAKE CITY CENTER
FSS: MC MINNVILLE FLIGHT SERVICE STATION
NOTAMs facility: MMV (NOTAM-D service available)
Attendance: UNATNDD
Pattern altitude: 3680 ft. MSL
Wind indicator: yes
Segmented circle: no

Airport Communications

CTAF: 122.9

Nearby radio navigation aids

NDB name  Hdg/Dist  Freq  Var  ID
ONTARIO189/38.630513EONO --- -. ---

Airport Services

Parking: tiedowns
Airframe service: NONE
Powerplant service: NONE
Bottled oxygen: NONE
Bulk oxygen: NONE

Runway Information

Runway 13/31

Dimensions: 1840 x 30 ft. / 561 x 9 m
Surface: dirt, in fair condition
IRREGULAR MAINTENANCE. RUNWAY SURFACE FREQUENTLY ROUGH AND RUTTED
RUNWAY 13  RUNWAY 31
Latitude: 43-25.610248N43-25.370388N
Longitude: 117-20.866427W117-20.612518W
Elevation: 2678.0 ft.2678.0 ft.
Traffic pattern: leftleft
Runway heading: 125 magnetic, 142 true305 magnetic, 322 true

Airport Ownership and Management from official FAA records

Ownership: Publicly-owned
Owner: OREGON DEPT. OF AVIATION
3040 25TH ST, SE
SALEM, OR 97302-1125
Phone 503-378-4880
Manager: STATE AIRPORTS MANAGER
3040 25TH ST, SE
SALEM, OR 97302-1125
Phone 503-378-4880

Airport Operational Statistics

Aircraft operations: avg 46/month *
100% transient general aviation
* for 12-month period ending 24 September 2017

Additional Remarks

OWNER ADVISES CONTACT WITH STATE DEPT OF AVIATION 503-378-4880 PRIOR TO USE.
REMOTE AIRPORT; NO GROUND ACCESS.
AIRPORT IN CANYON; SURROUNDED BY HIGH TERRAIN.
4 FT BRUSH GROWTH WITHIN 20 FT OF RWY EDGE.

Instrument Procedures

There are no published instrument procedures at 28U.

Some nearby airports with instrument procedures:

KEUL - Caldwell Industrial Airport (34 nm NE)
KMAN - Nampa Municipal Airport (37 nm E)
KONO - Ontario Municipal Airport (38 nm N)
KBOI - Boise Air Terminal/Gowen Field (50 nm E)
S87 - Weiser Municipal Airport (50 nm N)
 
Loc | Ops | Rwys | IFR | FBO | Links
Com | Nav | Svcs | Stats | Notes

AirNav Hotels Sweepstakes
 
Area around 28U (Owyhee Reservoir State Airport)
 
Road maps at: MapQuest Bing Google
 
Aerial photo
WARNING: Photo may not be current or correct
Aerial photo of 28U (Owyhee Reservoir State Airport)
Photo by Mark Andrews
Photo taken 05-Jul-2012
looking northwest.

Do you have a better or more recent aerial photo of Owyhee Reservoir State Airport that you would like to share? If so, please send us your photo.

 
Sectional chart

 
Airport distance calculator
Flying to Owyhee Reservoir State Airport? Find the distance to fly.

From to 28U

Sunrise and sunset
Times for 22-May-2018
 Local
(UTC-7)
 Zulu
(UTC)
Morning civil twilight04:4511:45
Sunrise05:1912:19
Sunset20:1303:13
Evening civil twilight20:4703:47

Current date and time
Zulu (UTC)  22-May-2018 20:40:48
Local (UTC-7)  22-May-2018 13:40:48
 
METAR
KEUL 
34nm E 
221956Z AUTO 35005KT 10SM CLR 26/11 A2984 RMK AO2 SLP088 T02610111
KMAN 
37nm E 
221955Z AUTO VRB03KT 10SM CLR 25/11 A2984 RMK A01
KONO 
38nm N 
221953Z AUTO VRB04KT 10SM CLR 26/11 A2984 RMK AO2 SLP090 T02610106
KBOI 
49nm E 
221953Z 03004KT 10SM CLR 25/12 A2985 RMK AO2 SLP086 T02500117
TAF
KEUL 
34nm E 
221720Z 2218/2318 27003KT P6SM BKN250 FM222100 VRB06KT P6SM VCTS SCT050 BKN100CB FM230000 14003KT P6SM BKN250
NOTAMs
Click for the latest NOTAMs
NOTAMs are issued by the DoD/FAA and will open in a separate window not controlled by AirNav.

 

 
 

Would you like to see your business listed on this page?

 If your business provides an interesting product or service to pilots, flight crews, aircraft, or users of the Owyhee Reservoir State Airport, you should consider listing it here.  To start the listing process, click on the button below
 
Add a business
 

Other Pages about Owyhee Reservoir State Airport

www.oregon.gov/...
 
Update a link
 
Copyright © AirNav, LLC. All rights reserved. Privacy Policy  Contact